Regional Weather Roundup
Issued by NWS

Home | Current Version | Previous Version | Graphics & Text | Print | Product List | Glossary On
Versions: 1 2 3 4 5 6 7 8 9 10 11 12 13 14 15 16 17 18 19 20 21 22 23 24 25 26 27 28 29 30 31 32 33 34 35 36 37 38 39 40 41 42 43 44 45 46 47 48 49 50
000
ASUS43 KFSD 190810
RWRSD

WEATHER ROUNDUP FOR SOUTH DAKOTA
NATIONAL WEATHER SERVICE SIOUX FALLS SD
300 AM CDT FRI SEP 19 2014

NOTE: "FAIR" INDICATES FEW OR NO CLOUDS BELOW 12,000 FEET WITH NO
SIGNIFICANT WEATHER AND/OR OBSTRUCTIONS TO VISIBILITY.


SDZ001>005-009-010-012>017-190900-
NORTHWEST AND NORTH CENTRAL SOUTH DAKOTA

CITY           SKY/WX    TMP DP  RH WIND       PRES   REMARKS
BUFFALO          N/A     64  54  69 SW14      29.67R
FAITH            N/A     64  62  93 SW5       29.72R
MOBRIDGE       TSTM      68  62  81 W10G25    29.71R
$$

SDZ012>016-024>037-041>051-057-063-072>074-190900-
SOUTHWEST AND SOUTH CENTRAL SOUTH DAKOTA

CITY           SKY/WX    TMP DP  RH WIND       PRES   REMARKS
RAPID CTY ARPT MOCLDY    70  52  52 N22G29    29.77R
PIERRE         MOCLDY    63  60  90 SE12      29.69R
CUSTER         PTCLDY    61  47  59 CALM      29.90F
ELLSWORTH AFB  MOCLDY    70  53  53 N18       29.78R
PHILIP         CLOUDY    63  60  90 S7        29.68R
PINE RIDGE     PTCLDY    65  61  87 S15G22    29.76F
WINNER         FAIR      68  63  84 S20G30    29.72F
$$

SDZ004>011-016>023-039-040-190900-
NORTHEAST SOUTH DAKOTA

CITY           SKY/WX    TMP DP  RH WIND       PRES   REMARKS
ABERDEEN       CLOUDY    65  58  78 S18G29    29.69F
WATERTOWN      CLOUDY    62  55  77 S23G31    29.80F
SISSETON         N/A     64  57  78 S14G24    29.74F
$$

SDZ017-020-022-023-036>040-048>070-190900-
SOUTHEAST SOUTH DAKOTA

CITY           SKY/WX    TMP DP  RH WIND       PRES   REMARKS
SIOUX FALLS    PTCLDY    61  56  83 S18       29.87F
HURON          CLOUDY    65  57  75 S20G29    29.76F
CHAMBERLAIN    PTCLDY    67  64  90 S15       29.73F
MITCHELL       MOCLDY    63  57  81 S18G25    29.80F
YANKTON        CLOUDY    63  57  82 S17G24    29.87F
$$

ABBREVIATIONS USED IN REMARKS
   TC - TEMPERATURE IN CELSIUS
  WCI - WIND CHILL INDEX
   HX - HEAT INDEX
  VSB - VISIBILITY




USA.gov is the U.S. government's official web portal to all federal, state and local government web resources and services.